This is the latest recevied weather packets stored in our database for station/object WX5KDM. If no packets are shown the sender has not sent any weather packets the latest 10 day(s).
| Time | Temp. | Humidity | Pressure | Rain* | Wind** | Luminosity | Snow |
|---|---|---|---|---|---|---|---|
| 1777664909 | 19.44° C | 57% | 1016 hPa | 0 mm | - | - | - |
| 1777664605 | 19.44° C | 56% | 1016.1 hPa | 0 mm | - | - | - |
| 1777664301 | 18.89° C | 56% | 1016 hPa | 0 mm | - | - | - |
| 1777664000 | 19.44° C | 56% | 1016.3 hPa | 0 mm | - | - | - |
| 1777663697 | 19.44° C | 56% | 1016.4 hPa | 0 mm | - | - | - |
| 1777663394 | 18.89° C | 58% | 1016.5 hPa | 0 mm | - | - | - |
| 1777663091 | 18.89° C | 57% | 1016.9 hPa | 0 mm | - | - | - |
| 1777662789 | 18.89° C | 58% | 1016.6 hPa | 0 mm | - | - | - |
| 1777662485 | 18.89° C | 59% | 1016.8 hPa | 0 mm | - | - | - |
| 1777662181 | 18.89° C | 54% | 1016.9 hPa | 0 mm | - | - | - |
| 1777661876 | 18.89° C | 59% | 1017.1 hPa | 0 mm | - | - | - |
| 1777661572 | 18.33° C | 59% | 1017 hPa | 0 mm | - | - | - |
| 1777661269 | 18.33° C | 55% | 1016.9 hPa | 0 mm | - | - | - |
| 1777660964 | 18.33° C | 58% | 1017.1 hPa | 0 mm | - | - | - |
| 1777660660 | 18.89° C | 55% | 1017.1 hPa | 0 mm | - | - | - |
| 1777660358 | 18.33° C | 59% | 1017.2 hPa | 0 mm | - | - | - |
| 1777660054 | 18.33° C | 58% | 1017.4 hPa | 0 mm | - | - | - |
| 1777659751 | 18.33° C | 54% | 1017.5 hPa | 0 mm | - | - | - |
| 1777659448 | 18.33° C | 58% | 1017.3 hPa | 0 mm | - | - | - |
| 1777659145 | 18.33° C | 55% | 1017.3 hPa | 0 mm | - | - | - |
| 1777658843 | 18.33° C | 55% | 1017.4 hPa | 0 mm | - | - | - |
| 1777658538 | 18.33° C | 55% | 1017.3 hPa | 0 mm | - | - | - |
| 1777658235 | 18.33° C | 57% | 1017.1 hPa | 0 mm | - | - | - |
| 1777657932 | 18.33° C | 58% | 1017 hPa | 0 mm | - | - | - |
| 1777657629 | 17.78° C | 58% | 1017.2 hPa | 0 mm | - | - | - |
* Rain latest hour (hover to see other rain measurements)
** Current wind speed in m/s (hover to see current wind gust speed)